Regional Weather Roundup
Issued by NWS Bismarck, ND

Home | Current Version | Previous Version | Text Only | Print | Product List | Glossary On
Versions: 1 2 3 4 5 6 7 8 9 10 11 12 13 14 15 16 17 18 19 20 21 22 23 24 25 26 27 28 29 30 31 32 33 34 35 36 37 38 39 40 41 42 43 44 45 46 47 48 49 50
000
ASUS43 KBIS 012110
RWRBIS

NWR BROADCAST TEXT
NATIONAL WEATHER SERVICE BISMARCK ND
400 PM CDT SUN MAY 01 2016

NOTE: "FAIR" INDICATES FEW OR NO CLOUDS BELOW 12,000 FEET WITH NO
SIGNIFICANT WEATHER AND/OR OBSTRUCTIONS TO VISIBILITY.


CITY           SKY/WX    TMP DP  RH WIND       PRES   REMARKS
WILLISTON      SUNNY     65  26  23 VRB7      30.22F
MINOT          SUNNY     68  24  19 VRB5      30.20F
MINOT AFB      SUNNY     64  26  23 VRB5      30.19F
BISMARCK       SUNNY     64  28  25 VRB7      30.23F
DICKINSON      SUNNY     62  27  26 N13       30.21F
GARRISON         N/A     63  27  25 SW9       30.21F
HETTINGER ARPT SUNNY     59  28  30 MISG      30.24F
JAMESTOWN      SUNNY     61  28  28 W8        30.19F
BEACH          FAIR      63  27  25 W8        30.27F
CARRINGTON     FAIR      63  25  23 VRB6G13   30.22F
HAZEN          FAIR      63  23  22 S3        30.24F
LINTON         FAIR      61  32  33 N5        30.24F
MANDAN         FAIR      61  30  31 CALM      30.24F
OAKES            N/A    N/A N/A N/A MISG        N/A
RUGBY          FAIR      63  27  25 NW6       30.20F
STANLEY        FAIR      63  25  23 W8        30.23F
TIOGA          FAIR      63  23  22 NW13      30.26F
WATFORD CITY   FAIR      64  23  20 N10       30.23F
$$

CITY           SKY/WX    TMP DP  RH WIND       PRES   REMARKS
GRAND FORKS    SUNNY     65  29  25 VRB5      30.18F
GRAND FORKS AF SUNNY     64  26  24 NE9       30.19F
DEVILS LAKE    SUNNY     61  28  28 SW13G21   30.20F
FARGO          SUNNY     67  28  23 N14       30.17F
CANDO          FAIR      64  23  20 N7        30.21F
CAVALIER       FAIR      64  27  24 NE3       30.19F
GRAFTON        FAIR      64  27  24 VRB5      30.20F
GWINNER        FAIR      63  32  31 N5        30.20F
LANGDON        FAIR      64  27  24 N5        30.20F
ROLLA          FAIR      63  23  22 S8        30.21F
WALHALLA       FAIR      64  30  27 E6G16     30.19F
$$

CITY           SKY/WX    TMP DP  RH WIND       PRES   REMARKS
ABERDEEN       SUNNY     63  32  31 NE9G22    30.21F
MOBRIDGE       SUNNY     63  32  31 NW12      30.20F
BUFFALO          N/A     61  27  27 NW9       30.19F
RAPID CITY     SUNNY     56  31  38 N10       30.26F
GLASGOW        SUNNY     65  31  28 VRB6      30.24F
SIDNEY         SUNNY     64  28  25 N5        30.24F
WOLF POINT     SUNNY     66  30  26 S8        30.22F
GLENDIVE       SUNNY     63  27  25 N7        30.26F
MILES CITY     MOSUNNY   61  29  29 S3        30.26F
BAKER          MOSUNNY   61  29  29 W9        30.26F
$$

CITY           SKY/WX    TMP DP  RH WIND       PRES   REMARKS
BILLINGS       CLOUDY    58  28  32 E7        30.25F
GREAT FALLS    SUNNY     61  32  33 VRB3      30.24F
REGINA         PTSUNNY   70  34  26 NW12G23   30.16F
ESTEVAN        MOSUNNY   70  27  19 VRB12     30.20F
$$





USA.gov is the U.S. government's official web portal to all federal, state and local government web resources and services.